[[{"header":{"parameterUnit":"m.s-1","parameterCategory":1,"la1":30.2991,"la2":30.254,"lo1":-89.0895,"lo2":-89.0444,"dy":0.0017,"dx":0.0017,"nx":28,"ny":28,"refTime":"2025-02-01T03:00:00:Z","depth":0,"parameterNumber":2,"parameterNumberName":"U-component_of_WINDS"},"data":[0,0,0,0,0,0,0,0,0,0,0,0,0,0,0,0,0,0,0,0,0,0,0,0,0,0,0,0,0,0,0,0,0,0,0,0,0,0,0,0,0,0,0,0,0,0,0,0,0,0,0,0,0,0,0,0,0,0,-1.271,-1.2709,0,-1.2667,-1.2667,-1.2666,-1.262,-1.2619,-1.2619,-1.2618,-1.2574,-1.2574,-1.2573,0,0,0,0,0,0,0,0,0,0,0,0,0,-1.2753,-1.2753,-1.271,-1.2709,-1.2709,-1.2667,-1.2667,-1.2666,-1.262,-1.2619,-1.2618,-1.2618,-1.2574,-1.2574,-1.2573,0,0,0,0,0,0,0,0,0,0,0,0,0,-1.2725,-1.2753,-1.271,-1.2681,-1.2678,-1.2667,-1.2667,-1.2666,-1.262,-1.2619,-1.2618,-1.2617,-1.2575,-1.2574,-1.2573,-1.2588,0,0,-1.2571,-1.257,0,0,0,0,0,0,0,0,-1.2727,-1.2723,-1.2686,-1.2683,-1.2679,-1.2648,-1.2666,-1.264,-1.262,-1.2642,-1.2618,-1.2617,-1.26,-1.2597,-1.2591,-1.2586,-1.2584,-1.257,-1.257,-1.257,-1.2569,0,0,0,0,0,0,0,-1.2729,-1.2725,-1.2693,-1.2685,-1.2681,-1.267,-1.2665,-1.2661,-1.2627,-1.264,-1.2637,-1.2632,-1.2598,-1.2592,-1.2589,-1.2583,-1.257,-1.257,-1.2569,-1.2569,-1.2591,-1.2592,0,0,0,0,0,0,-1.2735,-1.2727,-1.2694,-1.2692,-1.2701,-1.2671,-1.2665,-1.2659,-1.2627,-1.2621,-1.2633,-1.263,-1.2594,-1.259,-1.2588,-1.2604,-1.257,-1.2569,-1.2568,-1.259,-1.2591,-1.2592,0,0,0,0,0,0,-1.2736,-1.2732,-1.2696,-1.2708,-1.2703,-1.2671,-1.2665,-1.2659,-1.2653,-1.2622,-1.2615,-1.2633,-1.2593,-1.2589,-1.2589,-1.2602,-1.2568,-1.2568,-1.2588,-1.259,-1.2591,-1.2637,0,0,0,0,0,0,-1.2738,-1.2733,-1.2738,-1.2709,-1.2702,-1.2697,-1.2665,-1.2659,-1.2651,-1.2647,-1.262,-1.2614,-1.2592,-1.259,-1.2588,-1.26,-1.2567,-1.2587,-1.2589,-1.2591,-1.2634,-1.264,-1.2645,0,0,0,0,0,-1.2739,-1.2752,-1.2738,-1.2735,-1.2708,-1.2698,-1.2695,-1.2668,-1.2653,-1.2658,-1.2638,-1.2615,-1.2601,-1.259,-1.2587,-1.26,-1.2586,-1.2588,-1.2591,-1.2632,-1.2639,-1.2645,0,0,0,0,0,0,-1.2783,-1.2747,-1.2732,-1.2736,-1.272,-1.269,-1.2696,-1.2676,-1.2665,-1.2661,-1.2629,-1.2623,-1.2627,-1.2613,-1.2602,-1.2614,-1.259,-1.2592,-1.2622,-1.2629,-1.2634,-1.2638,-1.2566,0,0,0,0,0,-1.2793,-1.2788,-1.2757,-1.2763,-1.2757,-1.2728,-1.2722,-1.2704,-1.2686,-1.268,-1.266,-1.2644,-1.2637,-1.2632,-1.2623,-1.2632,-1.2626,-1.2639,-1.2645,-1.2649,-1.2651,-1.2657,-1.2663,-1.26,-1.26,-1.26,0,0,-1.2813,-1.2793,-1.2792,-1.2772,-1.2758,-1.2754,-1.2722,-1.2719,-1.2716,-1.2679,-1.2678,-1.2663,-1.2644,-1.2649,-1.265,-1.2638,-1.2668,-1.2652,-1.2656,-1.2656,-1.266,-1.2666,-1.2672,-1.2602,-1.2601,-1.2601,0,0,-1.2849,-1.2833,-1.2837,-1.2824,-1.2804,-1.2785,-1.2786,-1.2759,-1.2748,-1.2747,-1.272,-1.2716,-1.2703,-1.2691,-1.2683,-1.2717,-1.2696,-1.2715,-1.2743,-1.2749,-1.2754,-1.2758,-1.2772,-1.2777,-1.2717,-1.2717,-1.2717,0,-1.2877,-1.287,-1.2842,-1.2841,-1.2834,-1.2801,-1.2805,-1.2794,-1.2772,-1.2768,-1.2754,-1.2738,-1.2723,-1.2725,-1.2734,-1.2728,-1.273,-1.2718,-1.2756,-1.276,-1.2763,-1.2776,-1.2781,-1.272,-1.2719,-1.2719,-1.2719,0,-1.2906,-1.2902,-1.2908,-1.2888,-1.2881,-1.2883,-1.2856,-1.2853,-1.2836,-1.2818,-1.2819,-1.2799,-1.2787,-1.2786,-1.2768,-1.2787,-1.278,-1.2761,-1.2737,-1.2772,-1.2784,-1.2788,-1.2723,-1.2722,-1.2722,-1.2721,0,0,-1.2966,-1.2933,-1.2935,-1.2927,-1.2903,-1.2899,-1.2901,-1.2889,-1.2888,-1.2874,-1.2875,-1.2866,-1.2849,-1.284,-1.2821,-1.2827,-1.2857,-1.2807,-1.2807,-1.2818,-1.2878,-1.2893,-1.2899,-1.2843,-1.2844,-1.2845,-1.288,0,-1.2998,-1.2999,-1.2975,-1.2982,-1.2978,-1.2948,-1.295,-1.2936,-1.292,-1.2916,-1.2899,-1.2894,-1.2871,-1.2866,-1.287,-1.2852,-1.2869,-1.2849,-1.2845,-1.2845,-1.2851,-1.2904,-1.2919,-1.2954,-1.2884,-1.2885,-1.2886,0,-1.3035,-1.3025,-1.3032,-1.301,-1.3008,-1.3009,-1.2998,-1.2994,-1.2978,-1.2966,-1.2958,-1.2937,-1.2938,-1.2915,-1.2917,-1.2905,-1.2902,-1.2893,-1.2894,-1.2892,-1.2868,-1.2906,-1.2964,-1.297,-1.2892,-1.2892,-1.2891,0,-1.308,-1.3068,-1.3071,-1.3065,-1.3038,-1.3041,-1.303,-1.3013,-1.3009,-1.2999,-1.2996,-1.2986,-1.2981,-1.2974,-1.2951,-1.2937,-1.2956,-1.2931,-1.2948,-1.2949,-1.2953,-1.2953,-1.3013,-1.295,-1.295,-1.295,-1.295,0,-1.3119,-1.3124,-1.3091,-1.3093,-1.31,-1.3073,-1.308,-1.3066,-1.3052,-1.3052,-1.3025,-1.3025,-1.2995,-1.2992,-1.2975,-1.298,-1.2977,-1.2969,-1.2964,-1.2972,-1.2973,-1.2969,-1.2967,-1.2952,-1.2951,-1.2951,-1.2951,0,-1.3169,-1.3147,-1.3149,-1.3125,-1.3119,-1.3125,-1.3105,-1.3106,-1.309,-1.309,-1.3089,-1.3063,-1.3059,-1.3036,-1.3026,-1.3014,-1.3026,-1.3016,-1.3032,-1.3029,-1.3047,-1.3046,-1.3107,-1.3114,-1.3046,-1.3047,-1.3047,0,-1.3196,-1.32,-1.3177,-1.3175,-1.3166,-1.3163,-1.3158,-1.3132,-1.3129,-1.3113,-1.3117,-1.311,-1.3104,-1.3099,-1.308,-1.3073,-1.3063,-1.3085,-1.3062,-1.307,-1.3065,-1.3065,-1.3066,-1.309,-1.3091,-1.3092,-1.3092,0,-1.3245,-1.3234,-1.3229,-1.322,-1.3216,-1.3208,-1.3198,-1.3198,-1.317,-1.3167,-1.3163,-1.3158,-1.3149,-1.3144,-1.3134,-1.3124,-1.3104,-1.31,-1.3104,-1.3111,-1.3121,-1.3117,-1.3046,-1.3098,-1.3098,-1.3097,-1.3097,-1.3097,-1.3285,-1.3288,-1.3273,-1.3268,-1.3259,-1.3251,-1.3252,-1.3236,-1.3232,-1.3223,-1.3208,-1.3207,-1.3193,-1.3178,-1.317,-1.3168,-1.3157,-1.3162,-1.3163,-1.3165,-1.317,-1.3121,-1.3166,-1.3166,-1.3166,-1.3166,-1.3166,0,-1.3334,-1.3323,-1.3319,-1.3307,-1.3304,-1.3286,-1.3275,-1.3274,-1.3273,-1.3262,-1.3257,-1.3253,-1.3249,-1.323,-1.3224,-1.3227,-1.3218,-1.3226,-1.3226,-1.3224,-1.3179,-1.3178,-1.3234,-1.3234,-1.3234,-1.3234,-1.3234,-1.3234,-1.3359,-1.3364,-1.3352,-1.3352,-1.3342,-1.334,-1.3336,-1.3329,-1.332,-1.3318,-1.3314,-1.3302,-1.3289,-1.3282,-1.3277,-1.3272,-1.3272,-1.3283,-1.3275,-1.3234,-1.3227,-1.3221,-1.3219,-1.3283,-1.3283,-1.332,-1.3321,-1.3321]},{"header":{"parameterUnit":"m.s-1","parameterCategory":1,"la1":30.2991,"la2":30.254,"lo1":-89.0895,"lo2":-89.0444,"dy":0.0017,"dx":0.0017,"nx":28,"ny":28,"refTime":"2025-02-01T03:00:00:Z","depth":0,"parameterNumber":3,"parameterNumberName":"V-component_of_WINDS"},"data":[0,0,0,0,0,0,0,0,0,0,0,0,0,0,0,0,0,0,0,0,0,0,0,0,0,0,0,0,0,0,0,0,0,0,0,0,0,0,0,0,0,0,0,0,0,0,0,0,0,0,0,0,0,0,0,0,0,0,1.1378,1.1378,0,1.1355,1.1355,1.1355,1.1405,1.1407,1.1408,1.141,1.1382,1.138,1.1378,0,0,0,0,0,0,0,0,0,0,0,0,0,1.1461,1.1459,1.1378,1.1378,1.1377,1.1355,1.1355,1.1355,1.1405,1.1407,1.1409,1.1411,1.1383,1.138,1.1378,0,0,0,0,0,0,0,0,0,0,0,0,0,1.143,1.1459,1.1378,1.14,1.1401,1.1355,1.1355,1.1355,1.1404,1.1407,1.1409,1.1411,1.1384,1.1381,1.1377,1.1308,0,0,1.1367,1.1365,0,0,0,0,0,0,0,0,1.1432,1.1427,1.1397,1.1398,1.14,1.1386,1.1374,1.1339,1.1404,1.1403,1.141,1.1413,1.1381,1.1378,1.1368,1.1306,1.1305,1.1367,1.1365,1.1363,1.1362,0,0,0,0,0,0,0,1.1434,1.1428,1.1369,1.1396,1.1398,1.141,1.1408,1.1368,1.1378,1.1403,1.1407,1.1404,1.1382,1.1371,1.1368,1.1305,1.1367,1.1364,1.1362,1.136,1.1185,1.1182,0,0,0,0,0,0,1.1434,1.143,1.137,1.1368,1.1422,1.1406,1.1404,1.1388,1.1379,1.138,1.1402,1.1406,1.1376,1.1372,1.1367,1.1285,1.1363,1.136,1.1358,1.1187,1.1184,1.1181,0,0,0,0,0,0,1.1435,1.1428,1.137,1.14,1.1394,1.1402,1.1383,1.1386,1.1375,1.1378,1.138,1.1389,1.1378,1.1372,1.1323,1.1285,1.1359,1.1355,1.119,1.1186,1.1183,1.112,0,0,0,0,0,0,1.1438,1.1428,1.1402,1.1399,1.1392,1.1327,1.1381,1.1384,1.137,1.1375,1.1366,1.1367,1.1379,1.1327,1.1319,1.1282,1.1353,1.1194,1.1189,1.1184,1.1125,1.1114,1.1105,0,0,0,0,0,1.144,1.1385,1.1401,1.1393,1.136,1.1324,1.132,1.1337,1.1366,1.134,1.1342,1.1367,1.1291,1.1322,1.1313,1.1274,1.1196,1.119,1.1184,1.113,1.1117,1.1105,0,0,0,0,0,0,1.1382,1.1385,1.1403,1.1344,1.1334,1.1333,1.13,1.1322,1.1301,1.1307,1.1327,1.1325,1.1271,1.1268,1.1302,1.1206,1.1248,1.124,1.121,1.1197,1.1187,1.1188,1.135,0,0,0,0,0,1.1362,1.1334,1.1338,1.1286,1.128,1.1291,1.1276,1.129,1.1279,1.1275,1.1273,1.1261,1.1234,1.1216,1.1191,1.1126,1.1124,1.1095,1.1084,1.1076,1.1068,1.1033,1.102,1.1162,1.1162,1.1162,0,0,1.1321,1.1319,1.13,1.1274,1.1268,1.1238,1.1287,1.1253,1.123,1.1269,1.1223,1.1221,1.1209,1.1151,1.1125,1.1146,1.1029,1.1068,1.1062,1.1059,1.1026,1.1012,1.1,1.1158,1.1158,1.1159,0,0,1.1231,1.1227,1.1183,1.1177,1.1167,1.1175,1.1164,1.116,1.1161,1.1116,1.1144,1.1117,1.1071,1.1061,1.105,1.0957,1.0979,1.0948,1.0894,1.086,1.0849,1.0839,1.0805,1.0793,1.0941,1.0941,1.0941,0,1.118,1.1137,1.1158,1.1122,1.111,1.1146,1.1102,1.1093,1.1075,1.1065,1.109,1.1033,1.1027,1.0967,1.0945,1.0935,1.0923,1.0949,1.0849,1.0839,1.083,1.0798,1.0785,1.0937,1.0938,1.0938,1.0938,0,1.1075,1.1044,1.101,1.0994,1.0978,1.0938,1.0952,1.0933,1.0949,1.0954,1.0906,1.0901,1.0876,1.0863,1.0877,1.0806,1.0819,1.0846,1.0888,1.0813,1.0783,1.0771,1.0932,1.0933,1.0934,1.0935,0,0,1.0945,1.0942,1.0929,1.0922,1.0915,1.0891,1.0853,1.083,1.0813,1.08,1.0768,1.0728,1.0754,1.0741,1.0754,1.0724,1.0651,1.0755,1.0755,1.0735,1.0571,1.0549,1.0535,1.0666,1.0664,1.0662,1.0571,0,1.0855,1.079,1.0809,1.0743,1.0715,1.075,1.0716,1.0708,1.0712,1.0687,1.0692,1.0663,1.0699,1.0691,1.0664,1.0666,1.0618,1.0673,1.0635,1.0633,1.0635,1.052,1.0497,1.0411,1.056,1.0558,1.0556,0,1.074,1.0725,1.0657,1.0655,1.0644,1.0613,1.0594,1.0572,1.0562,1.0567,1.0554,1.0574,1.0535,1.058,1.0526,1.0563,1.0549,1.0547,1.0545,1.054,1.0589,1.0511,1.0384,1.0371,1.0538,1.054,1.0541,0,1.0651,1.0613,1.0567,1.0561,1.0558,1.0535,1.0533,1.0527,1.0512,1.0495,1.0486,1.0464,1.0452,1.0434,1.0447,1.0479,1.0391,1.0437,1.0393,1.0393,1.0372,1.0372,1.024,1.0365,1.0365,1.0365,1.0365,0,1.0548,1.0504,1.0527,1.0499,1.0452,1.0474,1.0426,1.0427,1.0421,1.0393,1.0422,1.0395,1.0415,1.0389,1.04,1.0353,1.0347,1.035,1.0352,1.0346,1.0346,1.0336,1.0342,1.0362,1.0362,1.0363,1.0364,0,1.0439,1.0453,1.0406,1.0408,1.0407,1.0372,1.0373,1.0346,1.0354,1.0318,1.031,1.0321,1.0292,1.0304,1.0273,1.028,1.0221,1.0232,1.0224,1.0226,1.0182,1.0185,1.0037,1.0018,1.0156,1.0155,1.0154,0,1.0371,1.0339,1.0338,1.0323,1.0318,1.0292,1.0278,1.0299,1.0283,1.0271,1.0245,1.022,1.02,1.0152,1.0156,1.0133,1.0143,1.0093,1.014,1.0134,1.0141,1.0142,1.0139,1.0083,1.0081,1.008,1.0079,0,1.0249,1.0258,1.0238,1.0219,1.0202,1.0188,1.0177,1.0162,1.0182,1.0162,1.0134,1.0119,1.0089,1.0063,1.0042,1.0039,1.0061,1.0065,1.0053,1.0045,1.0041,1.0042,1.0197,1.0067,1.0068,1.0069,1.007,1.007,1.0159,1.0132,1.0127,1.0103,1.0097,1.0086,1.0062,1.0066,1.0044,1.0022,1.0035,1.0002,0.9994,0.997,0.9963,0.9937,0.9957,0.994,0.9936,0.9931,0.9925,1.0047,0.9933,0.9934,0.9934,0.9934,0.9935,0,1.0037,1.0037,1.0015,0.9999,0.998,1.0005,0.9994,0.9976,0.9947,0.9939,0.992,0.9887,0.9862,0.9865,0.9842,0.982,0.983,0.9813,0.9814,0.9813,0.9909,0.9921,0.9806,0.9806,0.9806,0.9806,0.9806,0.9806,0.9972,0.9928,0.9936,0.989,0.9889,0.9858,0.985,0.9839,0.9833,0.9796,0.9776,0.9779,0.9775,0.9752,0.973,0.9731,0.9721,0.97,0.9705,0.9794,0.9806,0.9818,0.983,0.9698,0.9697,0.9611,0.961,0.961]}]]